TimeMST,TemperatureF,Dew PointF,Humidity,Sea Level PressureIn,VisibilityMPH,Wind Direction,Wind SpeedMPH,Gust SpeedMPH,PrecipitationIn,Events,Conditions,WindDirDegrees,DateUTC
12:16 AM,9.5,3.6,77,30.18,10.0,Calm,Calm,-,N/A,,Clear,0,2013-01-04 07:16:00
12:36 AM,8.4,3.4,80,30.18,10.0,SSW,3.5,-,N/A,,Clear,200,2013-01-04 07:36:00
12:56 AM,9.9,4.1,78,30.18,10.0,SSW,3.5,-,N/A,,Clear,200,2013-01-04 07:56:00
1:16 AM,9.1,3.7,79,30.18,10.0,Calm,Calm,-,N/A,,Clear,0,2013-01-04 08:16:00
1:36 AM,8.2,3.7,82,30.18,10.0,Calm,Calm,-,N/A,,Clear,0,2013-01-04 08:36:00
1:56 AM,10.0,3.7,76,30.18,10.0,SSW,3.5,-,N/A,,Clear,200,2013-01-04 08:56:00
2:16 AM,9.1,3.9,79,30.18,10.0,Calm,Calm,-,N/A,,Clear,0,2013-01-04 09:16:00
9:36 AM,30.2,12.0,47,30.15,10.0,Calm,Calm,-,N/A,,Clear,0,2013-01-04 16:36:00
9:56 AM,33.8,10.2,38,30.16,10.0,Calm,Calm,-,N/A,,Clear,0,2013-01-04 16:56:00
10:16 AM,36.0,9.3,33,30.15,10.0,Calm,Calm,-,N/A,,Clear,0,2013-01-04 17:16:00
10:36 AM,37.0,8.2,30,30.15,10.0,Calm,Calm,-,N/A,,Clear,0,2013-01-04 17:36:00
10:56 AM,38.7,8.6,29,30.14,10.0,Calm,Calm,-,N/A,,Clear,0,2013-01-04 17:56:00
11:16 AM,40.5,9.3,28,30.12,10.0,Calm,Calm,-,N/A,,Clear,0,2013-01-04 18:16:00
11:36 AM,42.6,10.8,27,30.11,10.0,South,3.5,-,N/A,,Clear,190,2013-01-04 18:36:00
11:56 AM,44.6,7.0,21,30.09,10.0,South,4.6,-,N/A,,Clear,190,2013-01-04 18:56:00
12:16 PM,45.3,3.9,18,30.08,10.0,South,3.5,-,N/A,,Clear,180,2013-01-04 19:16:00
12:36 PM,46.2,2.1,16,30.07,10.0,Calm,Calm,-,N/A,,Clear,0,2013-01-04 19:36:00
12:56 PM,46.9,3.2,17,30.05,10.0,Calm,Calm,-,N/A,,Clear,0,2013-01-04 19:56:00
1:16 PM,46.6,4.5,18,30.04,10.0,Calm,Calm,-,N/A,,Clear,0,2013-01-04 20:16:00
1:36 PM,48.2,5.0,17,30.03,10.0,SE,3.5,-,N/A,,Clear,130,2013-01-04 20:36:00
1:56 PM,46.9,6.1,19,30.02,10.0,NE,5.8,-,N/A,,Clear,50,2013-01-04 20:56:00
2:16 PM,46.4,11.8,25,30.02,10.0,NE,4.6,-,N/A,,Clear,40,2013-01-04 21:16:00
2:36 PM,45.5,13.8,28,30.02,10.0,NE,4.6,-,N/A,,Clear,50,2013-01-04 21:36:00
2:56 PM,45.0,14.5,29,30.01,10.0,NNE,5.8,-,N/A,,Clear,20,2013-01-04 21:56:00
3:16 PM,44.8,10.9,25,30.01,10.0,NNE,3.5,-,N/A,,Clear,30,2013-01-04 22:16:00
3:36 PM,44.1,10.9,26,30.01,10.0,Calm,Calm,-,N/A,,Clear,0,2013-01-04 22:36:00
3:56 PM,43.0,15.4,33,30.01,10.0,North,3.5,-,N/A,,Clear,10,2013-01-04 22:56:00
4:16 PM,40.8,17.8,40,30.01,10.0,NNE,4.6,-,N/A,,Clear,20,2013-01-04 23:16:00
4:36 PM,38.7,18.0,43,30.01,10.0,Calm,Calm,-,N/A,,Clear,0,2013-01-04 23:36:00
4:56 PM,34.9,18.7,52,30.01,10.0,Calm,Calm,-,N/A,,Clear,0,2013-01-04 23:56:00
5:16 PM,32.0,18.9,58,30.01,10.0,Calm,Calm,-,N/A,,Clear,0,2013-01-05 00:16:00
5:36 PM,28.4,19.4,69,30.02,10.0,Calm,Calm,-,N/A,,Clear,0,2013-01-05 00:36:00
5:56 PM,27.5,18.9,70,30.02,10.0,SSW,3.5,-,N/A,,Clear,200,2013-01-05 00:56:00
6:16 PM,26.6,18.1,70,30.02,10.0,SSW,3.5,-,N/A,,Clear,210,2013-01-05 01:16:00
6:36 PM,21.6,16.2,80,30.02,10.0,SSW,4.6,-,N/A,,Clear,200,2013-01-05 01:36:00
6:56 PM,23.2,17.1,77,30.02,10.0,Calm,Calm,-,N/A,,Clear,0,2013-01-05 01:56:00
7:16 PM,24.1,17.2,75,30.02,10.0,South,3.5,-,N/A,,Clear,170,2013-01-05 02:16:00
7:36 PM,23.7,16.2,73,30.03,10.0,Calm,Calm,-,N/A,,Clear,0,2013-01-05 02:36:00
7:56 PM,21.7,15.1,76,30.02,10.0,Calm,Calm,-,N/A,,Clear,0,2013-01-05 02:56:00
8:16 PM,20.1,15.4,82,30.03,10.0,Calm,Calm,-,N/A,,Clear,0,2013-01-05 03:16:00
8:36 PM,18.7,14.2,83,30.03,10.0,Calm,Calm,-,N/A,,Clear,0,2013-01-05 03:36:00
8:56 PM,17.8,15.3,90,30.03,10.0,SW,3.5,-,N/A,,Clear,220,2013-01-05 03:56:00
9:16 PM,15.3,12.7,90,30.03,10.0,Calm,Calm,-,N/A,,Clear,0,2013-01-05 04:16:00
9:36 PM,16.9,13.1,85,30.03,10.0,Calm,Calm,-,N/A,,Clear,0,2013-01-05 04:36:00
9:56 PM,15.1,11.8,87,30.05,10.0,Calm,Calm,-,N/A,,Clear,0,2013-01-05 04:56:00
10:16 PM,13.8,10.9,88,30.05,10.0,Calm,Calm,-,N/A,,Clear,0,2013-01-05 05:16:00
10:36 PM,13.6,9.9,85,30.06,10.0,Calm,Calm,-,N/A,,Clear,0,2013-01-05 05:36:00
10:56 PM,14.2,10.9,87,30.06,10.0,Calm,Calm,-,N/A,,Clear,0,2013-01-05 05:56:00
11:16 PM,13.5,10.0,86,30.06,10.0,Calm,Calm,-,N/A,,Clear,0,2013-01-05 06:16:00
11:36 PM,13.1,10.2,88,30.07,10.0,SSW,3.5,-,N/A,,Clear,200,2013-01-05 06:36:00
11:56 PM,14.0,10.4,86,30.05,10.0,WSW,6.9,-,N/A,,Clear,240,2013-01-05 06:56:00